Time,TemperatureF,DewpointF,PressureIn,WindDirection,WindDirectionDegrees,WindSpeedMPH,WindSpeedGustMPH,Humidity,HourlyPrecipIn,Conditions,Clouds,dailyrainin,SoftwareType,DateUTC
2013-04-05 00:00:00,28.9,23.6,30.12,WSW,248,0.0,0.0,80,0.00,,CLR,0.00,VWS V14.01,2013-04-05 04:00:00,
2013-04-05 00:03:00,36.9,33.9,30.00,West,270,0.0,0.0,89,0.04,,-RA,0.37,VWS V14.01,2013-04-05 04:03:00,
2013-04-05 00:08:00,36.9,33.9,30.00,West,270,0.0,0.0,89,0.04,,-RA,0.37,VWS V14.01,2013-04-05 04:08:00,
2013-04-05 00:13:00,36.9,33.9,30.00,West,270,0.0,0.0,89,0.04,,-RA,0.37,VWS V14.01,2013-04-05 04:13:00,
2013-04-05 00:18:00,36.9,34.8,30.00,West,270,0.0,0.0,92,0.04,,-RA,0.37,VWS V14.01,2013-04-05 04:18:00,
2013-04-05 00:23:00,36.9,35.0,30.00,West,270,0.0,0.0,93,0.04,,-RA,0.37,VWS V14.01,2013-04-05 04:23:00,
2013-04-05 00:28:00,36.9,34.8,30.00,West,270,0.0,0.0,92,0.04,,-RA,0.37,VWS V14.01,2013-04-05 04:28:00,
2013-04-05 00:33:00,36.9,34.5,30.00,West,270,0.0,0.0,91,0.08,,-RA,0.41,VWS V14.01,2013-04-05 04:33:00,
2013-04-05 00:38:00,36.9,34.5,30.00,West,270,0.0,0.0,91,0.08,,-RA,0.41,VWS V14.01,2013-04-05 04:38:00,
2013-04-05 00:43:00,36.9,34.5,30.00,West,270,0.0,0.0,91,0.08,,-RA,0.41,VWS V14.01,2013-04-05 04:43:00,
2013-04-05 00:48:00,36.9,34.5,29.97,West,270,0.0,0.0,91,0.08,,-RA,0.41,VWS V14.01,2013-04-05 04:48:00,
2013-04-05 00:53:00,36.9,34.5,29.97,West,270,0.0,0.0,91,0.04,,-RA,0.41,VWS V14.01,2013-04-05 04:53:00,
2013-04-05 00:58:00,37.0,35.2,29.97,West,270,0.0,0.0,93,0.04,,-RA,0.00,VWS V14.01,2013-04-05 04:58:00,
2013-04-05 01:03:00,37.0,35.5,29.97,West,270,0.0,0.0,94,0.04,,-RA,0.00,VWS V14.01,2013-04-05 05:03:00,
2013-04-05 01:08:00,37.0,35.5,29.97,West,270,0.0,0.0,94,0.04,,-RA,0.00,VWS V14.01,2013-04-05 05:08:00,
2013-04-05 01:13:00,37.0,35.5,29.97,West,270,0.0,0.0,94,0.04,,-RA,0.00,VWS V14.01,2013-04-05 05:13:00,
2013-04-05 01:18:00,37.0,35.2,29.97,West,270,0.0,0.0,93,0.04,,-RA,0.00,VWS V14.01,2013-04-05 05:18:00,
2013-04-05 01:23:00,37.0,35.2,29.97,West,270,0.0,0.0,93,0.04,,-RA,0.00,VWS V14.01,2013-04-05 05:23:00,
2013-04-05 01:28:00,37.0,35.2,29.97,WNW,292,0.0,0.0,93,0.04,,-RA,0.00,VWS V14.01,2013-04-05 05:28:00,
2013-04-05 01:33:00,37.0,35.2,29.97,WNW,292,0.0,0.0,93,0.00,,-RA,0.00,VWS V14.01,2013-04-05 05:33:00,
2013-04-05 01:38:00,37.0,35.2,29.97,WNW,292,0.0,0.0,93,0.00,,-RA,0.00,VWS V14.01,2013-04-05 05:38:00,
2013-04-05 01:43:00,37.0,35.2,29.97,NW,315,1.1,1.1,93,0.00,,-RA,0.00,VWS V14.01,2013-04-05 05:43:00,
2013-04-05 01:48:00,37.0,35.2,29.97,NNW,338,0.0,1.1,93,0.00,,-RA,0.00,VWS V14.01,2013-04-05 05:48:00,
2013-04-05 01:53:00,37.0,35.5,29.97,NNW,338,0.0,0.0,94,0.00,,-RA,0.00,VWS V14.01,2013-04-05 05:53:00,
2013-04-05 01:58:00,37.0,35.5,29.97,NW,315,0.0,0.0,94,0.00,,-RA,0.00,VWS V14.01,2013-04-05 05:58:00,
2013-04-05 02:03:00,37.0,35.2,29.97,NW,315,0.9,0.9,93,0.00,,-RA,0.00,VWS V14.01,2013-04-05 06:03:00,
2013-04-05 02:08:00,37.0,35.2,29.97,NW,315,0.0,0.0,93,0.00,,-RA,0.00,VWS V14.01,2013-04-05 06:08:00,
2013-04-05 02:13:00,37.2,35.7,29.97,NW,315,0.0,0.0,94,0.00,,-RA,0.00,VWS V14.01,2013-04-05 06:13:00,
2013-04-05 02:18:00,37.0,35.2,29.97,NW,315,0.0,0.0,93,0.00,,-RA,0.00,VWS V14.01,2013-04-05 06:18:00,
2013-04-05 02:23:00,37.2,35.4,29.97,NW,315,0.0,0.0,93,0.00,,-RA,0.00,VWS V14.01,2013-04-05 06:23:00,
2013-04-05 02:28:00,37.0,35.2,29.97,SW,225,0.0,0.0,93,0.00,,-RA,0.00,VWS V14.01,2013-04-05 06:28:00,
2013-04-05 02:33:00,37.0,34.9,29.97,SW,225,0.0,0.0,92,0.00,,-RA,0.00,VWS V14.01,2013-04-05 06:33:00,
2013-04-05 02:38:00,37.0,34.9,29.97,SW,225,0.0,0.0,92,0.00,,-RA,0.00,VWS V14.01,2013-04-05 06:38:00,
2013-04-05 02:43:00,37.2,35.4,29.97,SE,135,0.0,0.0,93,0.00,,-RA,0.00,VWS V14.01,2013-04-05 06:43:00,
2013-04-05 02:48:00,37.2,35.7,29.97,SE,135,0.0,0.0,94,0.00,,-RA,0.00,VWS V14.01,2013-04-05 06:48:00,
2013-04-05 02:53:00,37.2,35.7,29.97,SE,135,0.0,0.0,94,0.00,,-RA,0.00,VWS V14.01,2013-04-05 06:53:00,
2013-04-05 02:58:00,37.2,35.7,29.97,SE,135,0.0,0.0,94,0.00,,-RA,0.00,VWS V14.01,2013-04-05 06:58:00,
2013-04-05 03:03:00,37.2,35.7,29.97,SE,135,0.0,0.0,94,0.00,,-RA,0.00,VWS V14.01,2013-04-05 07:03:00,
2013-04-05 03:08:00,37.2,35.7,29.97,SE,135,0.0,0.0,94,0.00,,-RA,0.00,VWS V14.01,2013-04-05 07:08:00,
2013-04-05 03:13:00,37.2,35.7,29.97,SE,135,0.0,0.0,94,0.00,,-RA,0.00,VWS V14.01,2013-04-05 07:13:00,
2013-04-05 03:18:00,37.2,35.4,29.97,South,180,0.0,0.0,93,0.00,,-RA,0.00,VWS V14.01,2013-04-05 07:18:00,
2013-04-05 03:23:00,37.4,35.6,29.97,SW,225,0.0,0.0,93,0.00,,-RA,0.00,VWS V14.01,2013-04-05 07:23:00,
2013-04-05 03:28:00,37.4,35.6,29.97,SW,225,0.0,0.0,93,0.00,,-RA,0.00,VWS V14.01,2013-04-05 07:28:00,
2013-04-05 03:33:00,37.4,35.6,29.97,SW,225,0.0,0.0,93,0.00,,-RA,0.00,VWS V14.01,2013-04-05 07:33:00,
2013-04-05 03:38:00,37.4,35.6,29.97,SW,225,0.0,0.0,93,0.00,,-RA,0.00,VWS V14.01,2013-04-05 07:38:00,
2013-04-05 03:43:00,37.4,35.6,29.97,SW,225,0.0,0.0,93,0.00,,-RA,0.00,VWS V14.01,2013-04-05 07:43:00,
2013-04-05 03:48:00,37.4,35.3,29.97,South,180,1.3,1.3,92,0.00,,-RA,0.00,VWS V14.01,2013-04-05 07:48:00,
2013-04-05 03:53:00,37.4,35.6,29.97,SE,135,0.0,0.0,93,0.00,,-RA,0.00,VWS V14.01,2013-04-05 07:53:00,
2013-04-05 03:58:00,37.4,35.8,29.97,SE,135,0.0,0.0,94,0.00,,-RA,0.00,VWS V14.01,2013-04-05 07:58:00,
2013-04-05 04:03:00,37.4,35.8,29.97,SE,135,0.0,0.0,94,0.00,,-RA,0.00,VWS V14.01,2013-04-05 08:03:00,
2013-04-05 04:08:00,37.4,35.8,29.97,SE,135,0.0,0.0,94,0.00,,-RA,0.00,VWS V14.01,2013-04-05 08:08:00,
2013-04-05 04:13:00,37.4,35.8,29.97,SE,135,0.0,0.0,94,0.00,,-RA,0.00,VWS V14.01,2013-04-05 08:13:00,
2013-04-05 04:18:00,37.4,35.8,29.97,SE,135,0.0,0.0,94,0.00,,-RA,0.00,VWS V14.01,2013-04-05 08:18:00,
2013-04-05 04:23:00,37.4,35.8,29.97,WSW,248,0.0,0.0,94,0.04,,-RA,0.04,VWS V14.01,2013-04-05 08:23:00,
2013-04-05 04:28:00,37.6,36.0,29.97,West,270,0.0,0.0,94,0.04,,-RA,0.04,VWS V14.01,2013-04-05 08:28:00,
2013-04-05 04:33:00,37.6,36.0,30.00,West,270,0.0,0.0,94,0.04,,-RA,0.04,VWS V14.01,2013-04-05 08:33:00,
2013-04-05 04:38:00,37.6,36.3,30.00,West,270,0.0,0.0,95,0.04,,-RA,0.04,VWS V14.01,2013-04-05 08:38:00,
2013-04-05 04:43:00,37.6,36.5,30.00,West,270,0.0,0.0,96,0.04,,-RA,0.04,VWS V14.01,2013-04-05 08:43:00,
2013-04-05 04:48:00,37.6,36.5,30.00,West,270,0.0,0.0,96,0.04,,-RA,0.04,VWS V14.01,2013-04-05 08:48:00,
2013-04-05 04:53:00,37.6,36.5,30.00,West,270,0.0,0.0,96,0.04,,-RA,0.04,VWS V14.01,2013-04-05 08:53:00,
2013-04-05 04:58:00,37.6,36.3,30.00,WSW,248,0.0,0.0,95,0.04,,-RA,0.04,VWS V14.01,2013-04-05 08:58:00,
2013-04-05 05:03:00,37.6,36.0,30.00,SW,225,0.0,0.0,94,0.04,,-RA,0.04,VWS V14.01,2013-04-05 09:03:00,
2013-04-05 05:08:00,37.6,36.3,30.00,ESE,112,0.0,1.1,95,0.04,,-RA,0.04,VWS V14.01,2013-04-05 09:08:00,
2013-04-05 05:13:00,37.6,36.3,30.00,ESE,112,1.1,1.1,95,0.04,,-RA,0.04,VWS V14.01,2013-04-05 09:13:00,
2013-04-05 05:18:00,37.6,36.5,30.00,ESE,112,0.0,0.0,96,0.04,,-RA,0.04,VWS V14.01,2013-04-05 09:18:00,
2013-04-05 05:23:00,37.6,36.5,30.00,East,90,1.3,2.7,96,0.00,,-RA,0.04,VWS V14.01,2013-04-05 09:23:00,
2013-04-05 05:28:00,37.6,36.5,30.00,SE,135,1.1,2.0,96,0.00,,-RA,0.04,VWS V14.01,2013-04-05 09:28:00,
2013-04-05 05:33:00,37.6,36.5,30.00,NNE,22,1.1,1.1,96,0.00,,-RA,0.04,VWS V14.01,2013-04-05 09:33:00,
2013-04-05 05:38:00,37.6,36.5,30.00,WNW,292,1.1,1.1,96,0.00,,-RA,0.04,VWS V14.01,2013-04-05 09:38:00,
2013-04-05 05:43:00,37.6,36.5,30.00,WNW,292,0.0,0.0,96,0.00,,-RA,0.04,VWS V14.01,2013-04-05 09:43:00,
2013-04-05 05:48:00,37.6,36.5,30.00,WNW,292,0.0,0.0,96,0.00,,-RA,0.04,VWS V14.01,2013-04-05 09:48:00,
2013-04-05 05:53:00,37.6,36.5,30.00,WNW,292,0.0,0.0,96,0.00,,-RA,0.04,VWS V14.01,2013-04-05 09:53:00,
2013-04-05 05:58:00,37.6,36.5,30.00,WNW,292,0.0,0.0,96,0.00,,-RA,0.04,VWS V14.01,2013-04-05 09:58:00,
2013-04-05 06:03:00,37.8,36.7,30.00,WNW,292,0.0,0.0,96,0.05,,-RA,0.09,VWS V14.01,2013-04-05 10:03:00,
2013-04-05 06:08:00,37.9,36.9,30.00,WNW,292,0.0,0.0,96,0.05,,-RA,0.09,VWS V14.01,2013-04-05 10:08:00,
2013-04-05 06:13:00,37.9,37.2,30.00,WNW,292,0.0,0.0,97,0.05,,-RA,0.09,VWS V14.01,2013-04-05 10:13:00,
2013-04-05 06:18:00,37.9,37.2,30.00,WNW,292,0.0,0.0,97,0.05,,-RA,0.09,VWS V14.01,2013-04-05 10:18:00,
2013-04-05 06:23:00,37.9,36.9,30.00,WNW,292,0.0,0.0,96,0.05,,-RA,0.09,VWS V14.01,2013-04-05 10:23:00,
2013-04-05 06:28:00,37.9,36.9,30.00,WNW,292,0.0,0.0,96,0.05,,-RA,0.09,VWS V14.01,2013-04-05 10:28:00,
2013-04-05 06:33:00,37.9,36.9,30.00,WNW,292,0.0,0.0,96,0.05,,-RA,0.09,VWS V14.01,2013-04-05 10:33:00,
2013-04-05 06:38:00,38.1,37.1,30.00,WNW,292,0.0,0.0,96,0.05,,-RA,0.09,VWS V14.01,2013-04-05 10:38:00,
2013-04-05 06:43:00,37.9,36.9,30.00,WNW,292,0.0,0.0,96,0.05,,-RA,0.09,VWS V14.01,2013-04-05 10:43:00,
2013-04-05 06:48:00,37.9,36.9,30.00,WNW,292,0.0,0.0,96,0.05,,-RA,0.09,VWS V14.01,2013-04-05 10:48:00,
2013-04-05 06:53:00,38.1,37.1,30.00,WNW,292,0.0,0.0,96,0.05,,-RA,0.09,VWS V14.01,2013-04-05 10:53:00,
2013-04-05 06:58:00,38.1,37.3,30.00,WNW,292,0.0,0.0,97,0.05,,-RA,0.09,VWS V14.01,2013-04-05 10:58:00,
2013-04-05 07:03:00,37.9,36.9,30.03,WNW,292,0.0,0.0,96,0.00,,,0.09,VWS V14.01,2013-04-05 11:03:00,
2013-04-05 07:08:00,37.9,36.6,30.03,West,270,0.0,0.0,95,0.00,,,0.09,VWS V14.01,2013-04-05 11:08:00,
2013-04-05 07:13:00,38.1,36.8,30.03,West,270,0.0,0.0,95,0.00,,,0.09,VWS V14.01,2013-04-05 11:13:00,
2013-04-05 07:18:00,38.1,37.1,30.03,WNW,292,0.0,0.0,96,0.00,,,0.09,VWS V14.01,2013-04-05 11:18:00,
2013-04-05 07:23:00,38.1,37.3,30.03,West,270,0.0,0.0,97,0.00,,,0.09,VWS V14.01,2013-04-05 11:23:00,
2013-04-05 07:28:00,38.3,37.5,30.03,West,270,0.0,0.0,97,0.00,,,0.09,VWS V14.01,2013-04-05 11:28:00,
2013-04-05 07:33:00,38.3,37.5,30.03,NW,315,0.0,0.0,97,0.00,,,0.09,VWS V14.01,2013-04-05 11:33:00,
2013-04-05 07:38:00,38.5,37.7,30.03,NW,315,0.0,0.0,97,0.00,,,0.09,VWS V14.01,2013-04-05 11:38:00,
2013-04-05 07:43:00,38.5,37.7,30.03,NNW,338,0.0,0.9,97,0.00,,,0.09,VWS V14.01,2013-04-05 11:43:00,
2013-04-05 07:48:00,38.7,37.9,30.03,NW,315,0.0,0.0,97,0.00,,,0.09,VWS V14.01,2013-04-05 11:48:00,
2013-04-05 07:53:00,38.7,37.6,30.03,SW,225,1.1,1.1,96,0.00,,,0.09,VWS V14.01,2013-04-05 11:53:00,
2013-04-05 07:58:00,39.0,38.0,30.03,SSW,202,0.0,0.0,96,0.00,,,0.09,VWS V14.01,2013-04-05 11:58:00,
2013-04-05 08:03:00,39.2,38.2,30.03,SSW,202,0.0,0.0,96,0.00,,,0.09,VWS V14.01,2013-04-05 12:03:00,
2013-04-05 08:08:00,39.4,38.3,30.03,SSW,202,0.0,0.0,96,0.00,,,0.09,VWS V14.01,2013-04-05 12:08:00,
2013-04-05 08:13:00,39.7,38.7,30.03,West,270,0.0,0.0,96,0.00,,,0.09,VWS V14.01,2013-04-05 12:13:00,
2013-04-05 08:18:00,39.9,39.1,30.03,West,270,1.1,1.1,97,0.00,,,0.09,VWS V14.01,2013-04-05 12:18:00,
2013-04-05 08:23:00,39.9,39.1,30.03,West,270,1.3,2.0,97,0.00,,,0.09,VWS V14.01,2013-04-05 12:23:00,
2013-04-05 08:28:00,40.1,39.3,30.03,NNW,338,1.6,2.5,97,0.00,,,0.09,VWS V14.01,2013-04-05 12:28:00,
2013-04-05 08:33:00,40.3,39.5,30.03,West,270,4.3,4.3,97,0.00,,,0.09,VWS V14.01,2013-04-05 12:33:00,
2013-04-05 08:38:00,40.5,39.7,30.03,NW,315,3.1,3.1,97,0.00,,,0.09,VWS V14.01,2013-04-05 12:38:00,
2013-04-05 08:43:00,40.6,39.9,30.03,NW,315,1.6,2.9,97,0.00,,,0.09,VWS V14.01,2013-04-05 12:43:00,
2013-04-05 08:48:00,41.0,40.2,30.03,NNW,338,3.1,3.6,97,0.00,,,0.09,VWS V14.01,2013-04-05 12:48:00,
2013-04-05 08:53:00,41.7,40.9,30.03,East,90,1.1,2.5,97,0.00,,,0.09,VWS V14.01,2013-04-05 12:53:00,
2013-04-05 08:58:00,42.8,41.7,30.03,NW,315,5.8,5.8,96,0.00,,,0.09,VWS V14.01,2013-04-05 12:58:00,
2013-04-05 09:03:00,42.8,41.2,30.03,West,270,1.6,3.1,94,0.00,,,0.09,VWS V14.01,2013-04-05 13:03:00,
2013-04-05 09:08:00,42.6,40.7,30.03,North,0,5.4,5.4,93,0.00,,,0.09,VWS V14.01,2013-04-05 13:08:00,
2013-04-05 09:13:00,42.4,39.4,30.03,SW,225,0.9,1.6,89,0.00,,,0.09,VWS V14.01,2013-04-05 13:13:00,
2013-04-05 09:18:00,43.0,39.4,30.03,NW,315,1.3,1.6,87,0.00,,,0.09,VWS V14.01,2013-04-05 13:18:00,
2013-04-05 09:23:00,43.5,39.6,30.03,West,270,1.3,1.3,86,0.00,,,0.09,VWS V14.01,2013-04-05 13:23:00,
2013-04-05 09:28:00,43.7,38.9,30.03,NE,45,2.2,4.0,83,0.00,,,0.09,VWS V14.01,2013-04-05 13:28:00,
2013-04-05 09:33:00,43.9,38.4,30.03,NE,45,1.6,2.9,81,0.00,,,0.09,VWS V14.01,2013-04-05 13:33:00,
2013-04-05 09:38:00,43.5,37.5,30.03,WSW,248,4.3,6.5,79,0.00,,,0.09,VWS V14.01,2013-04-05 13:38:00,
2013-04-05 09:43:00,43.5,37.8,30.03,WNW,292,0.0,3.4,80,0.00,,,0.09,VWS V14.01,2013-04-05 13:43:00,
2013-04-05 09:48:00,44.2,38.2,30.00,WNW,292,3.1,3.1,79,0.00,,,0.09,VWS V14.01,2013-04-05 13:48:00,
2013-04-05 09:54:00,45.7,38.9,30.00,NW,315,2.9,2.9,77,0.00,,,0.09,VWS V14.01,2013-04-05 13:54:00,
2013-04-05 09:59:00,46.0,37.9,30.00,NW,315,0.0,2.7,73,0.00,,,0.09,VWS V14.01,2013-04-05 13:59:00,
2013-04-05 10:04:00,48.4,39.4,30.03,WNW,292,3.4,7.2,71,0.00,,SCT011,0.09,VWS V14.01,2013-04-05 14:04:00,
2013-04-05 10:09:00,48.9,37.3,30.03,NW,315,3.8,5.8,64,0.00,,SCT011,0.09,VWS V14.01,2013-04-05 14:09:00,
2013-04-05 10:14:00,50.0,36.7,30.03,North,0,3.4,4.7,60,0.00,,SCT011,0.09,VWS V14.01,2013-04-05 14:14:00,
2013-04-05 10:19:00,50.7,35.6,30.03,NNW,338,4.3,6.0,56,0.00,,SCT011,0.09,VWS V14.01,2013-04-05 14:19:00,
2013-04-05 10:24:00,51.3,36.1,30.03,NW,315,2.0,4.9,56,0.00,,SCT011,0.09,VWS V14.01,2013-04-05 14:24:00,
2013-04-05 10:29:00,52.3,36.2,30.03,WSW,248,4.9,4.9,54,0.00,,SCT011,0.09,VWS V14.01,2013-04-05 14:29:00,
2013-04-05 10:34:00,54.3,37.1,30.03,South,180,6.3,6.3,52,0.00,,SCT011,0.09,VWS V14.01,2013-04-05 14:34:00,
2013-04-05 10:39:00,53.1,33.9,30.03,SW,225,3.1,4.0,48,0.00,,SCT011,0.09,VWS V14.01,2013-04-05 14:39:00,
2013-04-05 10:44:00,54.5,35.2,30.03,NNE,22,2.7,4.3,48,0.00,,SCT011,0.09,VWS V14.01,2013-04-05 14:44:00,
2013-04-05 10:49:00,55.2,35.9,30.03,NW,315,4.7,4.7,48,0.00,,SCT011,0.09,VWS V14.01,2013-04-05 14:49:00,
2013-04-05 10:54:00,55.9,36.0,30.03,WNW,292,2.9,3.4,47,0.00,,SCT011,0.09,VWS V14.01,2013-04-05 14:54:00,
2013-04-05 10:59:00,57.0,35.3,30.03,SW,225,1.6,3.6,44,0.00,,SCT011,0.09,VWS V14.01,2013-04-05 14:59:00,
2013-04-05 11:04:00,56.7,32.6,30.03,NW,315,5.4,5.4,40,0.00,,BKN019,0.09,VWS V14.01,2013-04-05 15:04:00,
2013-04-05 11:09:00,57.6,35.2,30.03,NW,315,2.0,5.6,43,0.00,,BKN019,0.09,VWS V14.01,2013-04-05 15:09:00,
2013-04-05 11:14:00,58.1,32.0,30.03,NNW,338,3.8,7.4,37,0.00,,BKN019,0.09,VWS V14.01,2013-04-05 15:14:00,
2013-04-05 11:19:00,59.4,33.1,30.03,WSW,248,3.6,5.4,37,0.00,,BKN019,0.09,VWS V14.01,2013-04-05 15:19:00,
2013-04-05 11:24:00,57.9,30.5,30.03,NW,315,5.6,5.6,35,0.00,,BKN019,0.09,VWS V14.01,2013-04-05 15:24:00,
2013-04-05 11:29:00,60.3,33.2,30.03,NW,315,3.8,4.9,36,0.00,,BKN019,0.09,VWS V14.01,2013-04-05 15:29:00,
2013-04-05 11:34:00,61.3,33.5,30.03,West,270,3.6,3.6,35,0.00,,BKN019,0.09,VWS V14.01,2013-04-05 15:34:00,
2013-04-05 11:39:00,61.0,32.4,30.03,NW,315,3.6,6.7,34,0.00,,BKN019,0.09,VWS V14.01,2013-04-05 15:39:00,
2013-04-05 11:45:00,61.0,32.4,30.03,WNW,292,6.3,6.3,34,0.00,,BKN019,0.09,VWS V14.01,2013-04-05 15:45:00,
2013-04-05 11:50:00,61.0,32.4,30.03,NNW,338,5.8,5.8,34,0.00,,BKN019,0.09,VWS V14.01,2013-04-05 15:50:00,
2013-04-05 11:55:00,61.9,33.2,30.03,East,90,2.2,4.9,34,0.00,,BKN019,0.09,VWS V14.01,2013-04-05 15:55:00,
2013-04-05 12:00:00,60.6,31.4,30.03,SE,135,3.4,7.4,33,0.00,,SCT020,0.09,VWS V14.01,2013-04-05 16:00:00,
2013-04-05 12:05:00,61.2,32.6,30.00,WNW,292,2.2,7.8,34,0.00,,SCT020,0.09,VWS V14.01,2013-04-05 16:05:00,
2013-04-05 12:10:00,62.8,32.5,30.00,WNW,292,4.0,4.9,32,0.00,,SCT020,0.09,VWS V14.01,2013-04-05 16:10:00,
2013-04-05 12:15:00,62.1,31.1,30.00,WNW,292,2.5,6.5,31,0.00,,SCT020,0.09,VWS V14.01,2013-04-05 16:15:00,
2013-04-05 12:20:00,63.5,33.9,30.03,NW,315,2.2,4.0,33,0.00,,SCT020,0.09,VWS V14.01,2013-04-05 16:20:00,
2013-04-05 12:25:00,64.0,34.4,30.03,NW,315,4.3,4.9,33,0.00,,SCT020,0.09,VWS V14.01,2013-04-05 16:25:00,
2013-04-05 12:30:00,63.1,32.0,30.03,SW,225,3.1,6.5,31,0.00,,SCT020,0.09,VWS V14.01,2013-04-05 16:30:00,
2013-04-05 12:35:00,62.8,30.9,30.03,North,0,5.8,7.4,30,0.00,,SCT020,0.09,VWS V14.01,2013-04-05 16:35:00,
2013-04-05 12:40:00,63.0,31.1,30.03,WNW,292,2.9,6.0,30,0.00,,SCT020,0.09,VWS V14.01,2013-04-05 16:40:00,
2013-04-05 12:45:00,65.1,34.6,30.03,WSW,248,3.6,3.6,32,0.00,,SCT020,0.09,VWS V14.01,2013-04-05 16:45:00,
2013-04-05 12:50:00,65.3,33.9,30.03,NW,315,2.0,4.9,31,0.00,,SCT020,0.09,VWS V14.01,2013-04-05 16:50:00,
2013-04-05 12:55:00,65.7,33.4,30.03,NNW,338,5.6,7.4,30,0.00,,SCT020,0.09,VWS V14.01,2013-04-05 16:55:00,
2013-04-05 13:00:00,65.1,32.9,30.03,NE,45,2.0,4.3,30,0.00,,CLR,0.09,VWS V14.01,2013-04-05 17:00:00,
2013-04-05 13:05:00,66.9,31.9,30.03,WNW,292,4.7,4.7,27,0.00,,CLR,0.09,VWS V14.01,2013-04-05 17:05:00,
2013-04-05 13:10:00,66.0,31.1,30.03,West,270,2.0,7.4,27,0.00,,CLR,0.09,VWS V14.01,2013-04-05 17:10:00,
2013-04-05 13:15:00,65.5,29.7,30.03,SW,225,3.4,4.9,26,0.00,,CLR,0.09,VWS V14.01,2013-04-05 17:15:00,
2013-04-05 13:20:00,64.9,31.1,30.00,WSW,248,3.6,8.1,28,0.00,,CLR,0.09,VWS V14.01,2013-04-05 17:20:00,
2013-04-05 13:25:00,64.8,30.0,30.00,North,0,5.8,7.2,27,0.00,,CLR,0.09,VWS V14.01,2013-04-05 17:25:00,
2013-04-05 13:30:00,65.8,31.0,30.00,NNW,338,0.9,9.8,27,0.00,,CLR,0.09,VWS V14.01,2013-04-05 17:30:00,
2013-04-05 13:35:00,66.9,31.0,30.00,North,0,3.6,4.3,26,0.00,,CLR,0.09,VWS V14.01,2013-04-05 17:35:00,
2013-04-05 13:40:00,68.2,32.0,30.00,NW,315,2.9,4.0,26,0.00,,CLR,0.09,VWS V14.01,2013-04-05 17:40:00,
2013-04-05 13:45:00,67.1,30.1,30.00,NW,315,7.6,7.6,25,0.00,,CLR,0.09,VWS V14.01,2013-04-05 17:45:00,
2013-04-05 13:50:00,64.8,28.1,30.00,WSW,248,1.6,6.5,25,0.00,,CLR,0.09,VWS V14.01,2013-04-05 17:50:00,
2013-04-05 13:55:00,66.9,30.0,30.00,NNW,338,3.6,7.6,25,0.00,,CLR,0.09,VWS V14.01,2013-04-05 17:55:00,
2013-04-05 14:00:00,65.7,28.9,30.00,NNW,338,5.4,10.5,25,0.00,,CLR,0.09,VWS V14.01,2013-04-05 18:00:00,
2013-04-05 14:05:00,64.8,27.2,30.00,NW,315,8.7,12.1,24,0.00,,CLR,0.09,VWS V14.01,2013-04-05 18:05:00,
2013-04-05 14:10:00,63.7,27.2,30.00,WNW,292,2.9,9.8,25,0.00,,CLR,0.09,VWS V14.01,2013-04-05 18:10:00,
2013-04-05 14:15:00,66.7,28.8,30.00,WSW,248,3.1,5.4,24,0.00,,CLR,0.09,VWS V14.01,2013-04-05 18:15:00,
2013-04-05 14:20:00,66.4,28.5,30.00,NW,315,3.4,6.3,24,0.00,,CLR,0.09,VWS V14.01,2013-04-05 18:20:00,
2013-04-05 14:25:00,67.6,29.6,30.00,WNW,292,6.0,6.0,24,0.00,,CLR,0.09,VWS V14.01,2013-04-05 18:25:00,
2013-04-05 14:30:00,66.4,28.5,30.00,SSW,202,4.9,7.8,24,0.00,,CLR,0.09,VWS V14.01,2013-04-05 18:30:00,
2013-04-05 14:35:00,66.9,29.0,30.00,West,270,1.3,5.8,24,0.00,,CLR,0.09,VWS V14.01,2013-04-05 18:35:00,
2013-04-05 14:40:00,67.5,29.4,30.00,North,0,1.1,4.3,24,0.00,,CLR,0.09,VWS V14.01,2013-04-05 18:40:00,
2013-04-05 14:45:00,67.1,29.1,30.00,NW,315,3.1,9.0,24,0.00,,CLR,0.09,VWS V14.01,2013-04-05 18:45:00,
2013-04-05 14:50:00,66.9,29.0,30.00,SW,225,5.8,7.2,24,0.00,,CLR,0.09,VWS V14.01,2013-04-05 18:50:00,
2013-04-05 14:55:00,68.4,30.2,30.00,WSW,248,3.1,3.1,24,0.00,,CLR,0.09,VWS V14.01,2013-04-05 18:55:00,
2013-04-05 15:00:00,67.8,29.7,30.00,East,90,5.4,7.4,24,0.00,,CLR,0.09,VWS V14.01,2013-04-05 19:00:00,
2013-04-05 15:05:00,67.5,29.4,30.00,WNW,292,2.5,7.4,24,0.00,,CLR,0.09,VWS V14.01,2013-04-05 19:05:00,
2013-04-05 15:10:00,68.0,29.9,30.00,NE,45,2.0,6.3,24,0.00,,CLR,0.09,VWS V14.01,2013-04-05 19:10:00,
2013-04-05 15:15:00,67.8,29.7,29.97,SW,225,4.7,6.3,24,0.00,,CLR,0.09,VWS V14.01,2013-04-05 19:15:00,
2013-04-05 15:20:00,68.4,29.1,29.97,West,270,2.0,5.6,23,0.00,,CLR,0.09,VWS V14.01,2013-04-05 19:20:00,
2013-04-05 15:25:00,67.3,29.3,29.97,NNW,338,6.0,6.5,24,0.00,,CLR,0.09,VWS V14.01,2013-04-05 19:25:00,
2013-04-05 15:30:00,69.8,31.4,29.97,NW,315,2.0,5.4,24,0.00,,CLR,0.09,VWS V14.01,2013-04-05 19:30:00,
2013-04-05 15:35:00,67.8,29.7,29.97,South,180,6.5,7.6,24,0.00,,CLR,0.09,VWS V14.01,2013-04-05 19:35:00,
2013-04-05 15:40:00,66.6,28.7,29.97,North,0,3.6,7.2,24,0.00,,CLR,0.09,VWS V14.01,2013-04-05 19:40:00,
2013-04-05 15:45:00,65.8,28.1,29.97,NW,315,7.4,8.5,24,0.00,,CLR,0.09,VWS V14.01,2013-04-05 19:45:00,
2013-04-05 15:50:00,67.3,29.3,29.97,North,0,2.5,4.0,24,0.00,,CLR,0.09,VWS V14.01,2013-04-05 19:50:00,
2013-04-05 15:55:00,66.6,28.7,29.97,WNW,292,3.6,6.5,24,0.00,,CLR,0.09,VWS V14.01,2013-04-05 19:55:00,
2013-04-05 16:00:00,68.0,29.9,29.97,South,180,2.0,3.8,24,0.00,,CLR,0.09,VWS V14.01,2013-04-05 20:00:00,
2013-04-05 16:06:00,66.4,28.5,29.97,WNW,292,2.7,7.6,24,0.00,,CLR,0.09,VWS V14.01,2013-04-05 20:06:00,
2013-04-05 16:11:00,65.8,28.1,29.97,SSE,158,2.7,10.3,24,0.00,,CLR,0.09,VWS V14.01,2013-04-05 20:11:00,
2013-04-05 16:16:00,66.0,28.2,29.97,North,0,5.8,6.0,24,0.00,,CLR,0.09,VWS V14.01,2013-04-05 20:16:00,
2013-04-05 16:21:00,66.4,27.5,29.97,SW,225,5.4,5.4,23,0.00,,CLR,0.09,VWS V14.01,2013-04-05 20:21:00,
2013-04-05 16:26:00,66.4,28.5,29.97,WSW,248,1.6,8.1,24,0.00,,CLR,0.09,VWS V14.01,2013-04-05 20:26:00,
2013-04-05 16:31:00,67.1,28.1,29.97,NNW,338,5.6,6.0,23,0.00,,CLR,0.09,VWS V14.01,2013-04-05 20:31:00,
2013-04-05 16:36:00,68.0,28.9,29.97,NE,45,3.6,5.6,23,0.00,,CLR,0.09,VWS V14.01,2013-04-05 20:36:00,
2013-04-05 16:41:00,67.1,28.1,29.97,NW,315,7.6,7.6,23,0.00,,CLR,0.09,VWS V14.01,2013-04-05 20:41:00,
2013-04-05 16:46:00,67.1,28.1,29.94,NW,315,5.6,6.5,23,0.00,,CLR,0.09,VWS V14.01,2013-04-05 20:46:00,
2013-04-05 16:51:00,65.7,26.9,29.94,ENE,68,7.2,10.3,23,0.00,,CLR,0.09,VWS V14.01,2013-04-05 20:51:00,
2013-04-05 16:56:00,66.9,27.9,29.94,NW,315,4.7,4.7,23,0.00,,CLR,0.09,VWS V14.01,2013-04-05 20:56:00,
2013-04-05 17:01:00,67.1,28.1,29.97,WSW,248,4.3,5.6,23,0.00,,CLR,0.09,VWS V14.01,2013-04-05 21:01:00,
2013-04-05 17:06:00,66.0,27.2,29.97,SSE,158,7.8,7.8,23,0.00,,CLR,0.09,VWS V14.01,2013-04-05 21:06:00,
2013-04-05 17:11:00,65.8,28.1,29.97,NNW,338,3.8,7.8,24,0.00,,CLR,0.09,VWS V14.01,2013-04-05 21:11:00,
2013-04-05 17:17:00,66.2,27.3,30.00,West,270,1.3,5.4,23,0.00,,CLR,0.09,VWS V14.01,2013-04-05 21:17:00,
2013-04-05 17:21:00,65.5,26.7,30.00,NW,315,6.0,7.4,23,0.00,,CLR,0.09,VWS V14.01,2013-04-05 21:21:00,
2013-04-05 17:27:00,64.4,25.8,30.00,WSW,248,2.9,8.5,23,0.00,,CLR,0.09,VWS V14.01,2013-04-05 21:27:00,
2013-04-05 17:32:00,64.6,27.0,30.00,West,270,3.4,6.5,24,0.00,,CLR,0.09,VWS V14.01,2013-04-05 21:32:00,
2013-04-05 17:37:00,64.9,27.3,30.00,SE,135,2.0,4.9,24,0.00,,CLR,0.09,VWS V14.01,2013-04-05 21:37:00,
2013-04-05 17:42:00,64.4,26.9,30.00,South,180,3.8,8.7,24,0.00,,CLR,0.09,VWS V14.01,2013-04-05 21:42:00,
2013-04-05 17:47:00,63.9,26.4,30.00,West,270,3.6,5.4,24,0.00,,CLR,0.09,VWS V14.01,2013-04-05 21:47:00,
2013-04-05 17:52:00,63.0,25.6,30.00,WNW,292,3.8,7.8,24,0.00,,CLR,0.09,VWS V14.01,2013-04-05 21:52:00,
2013-04-05 17:57:00,62.8,25.5,30.00,NW,315,2.7,8.5,24,0.00,,CLR,0.09,VWS V14.01,2013-04-05 21:57:00,
2013-04-05 18:02:00,61.3,25.2,30.03,SW,225,4.0,12.8,25,0.00,,CLR,0.09,VWS V14.01,2013-04-05 22:02:00,
2013-04-05 18:07:00,61.7,25.5,30.03,NNW,338,1.1,6.3,25,0.00,,CLR,0.09,VWS V14.01,2013-04-05 22:07:00,
2013-04-05 18:12:00,61.7,25.5,30.03,SW,225,4.9,7.2,25,0.00,,CLR,0.09,VWS V14.01,2013-04-05 22:12:00,
2013-04-05 18:17:00,60.6,24.6,30.03,SSW,202,3.4,5.8,25,0.00,,CLR,0.09,VWS V14.01,2013-04-05 22:17:00,
2013-04-05 18:22:00,60.6,24.6,30.03,NW,315,3.1,5.4,25,0.00,,CLR,0.09,VWS V14.01,2013-04-05 22:22:00,
2013-04-05 18:27:00,60.6,24.6,30.03,NE,45,2.2,4.9,25,0.00,,CLR,0.09,VWS V14.01,2013-04-05 22:27:00,
2013-04-05 18:32:00,60.8,24.8,30.03,South,180,2.7,5.4,25,0.00,,CLR,0.09,VWS V14.01,2013-04-05 22:32:00,
2013-04-05 18:37:00,60.4,24.5,30.03,South,180,4.7,5.4,25,0.00,,CLR,0.09,VWS V14.01,2013-04-05 22:37:00,
2013-04-05 18:42:00,61.2,25.1,30.03,SSW,202,2.9,5.8,25,0.00,,CLR,0.09,VWS V14.01,2013-04-05 22:42:00,
2013-04-05 18:47:00,61.3,25.2,30.03,West,270,1.6,3.6,25,0.00,,CLR,0.09,VWS V14.01,2013-04-05 22:47:00,
2013-04-05 18:52:00,61.5,25.4,30.03,NW,315,2.2,4.7,25,0.00,,CLR,0.09,VWS V14.01,2013-04-05 22:52:00,
2013-04-05 18:57:00,61.3,25.2,30.03,NNW,338,2.2,5.4,25,0.00,,CLR,0.09,VWS V14.01,2013-04-05 22:57:00,
2013-04-05 19:02:00,61.2,25.1,30.00,West,270,1.1,3.1,25,0.00,,CLR,0.09,VWS V14.01,2013-04-05 23:02:00,
2013-04-05 19:07:00,60.3,24.3,30.00,WSW,248,4.0,4.3,25,0.00,,CLR,0.09,VWS V14.01,2013-04-05 23:07:00,
2013-04-05 19:12:00,60.3,24.3,30.00,NW,315,1.3,4.3,25,0.00,,CLR,0.09,VWS V14.01,2013-04-05 23:12:00,
2013-04-05 19:17:00,59.9,24.0,30.03,SW,225,2.2,3.8,25,0.00,,CLR,0.09,VWS V14.01,2013-04-05 23:17:00,
2013-04-05 19:22:00,57.9,23.3,30.03,NW,315,1.6,2.9,26,0.00,,CLR,0.09,VWS V14.01,2013-04-05 23:22:00,
2013-04-05 19:27:00,56.5,22.0,30.03,West,270,1.3,4.7,26,0.00,,CLR,0.09,VWS V14.01,2013-04-05 23:27:00,
2013-04-05 19:32:00,55.6,22.1,30.03,WSW,248,0.0,2.7,27,0.00,,CLR,0.09,VWS V14.01,2013-04-05 23:32:00,
2013-04-05 19:37:00,54.3,21.9,30.03,NNE,22,0.0,2.2,28,0.00,,CLR,0.09,VWS V14.01,2013-04-05 23:37:00,
2013-04-05 19:42:00,52.7,23.7,30.03,NNW,338,0.0,2.0,32,0.00,,CLR,0.09,VWS V14.01,2013-04-05 23:42:00,
2013-04-05 19:47:00,51.3,25.2,30.03,NW,315,0.0,1.3,36,0.00,,CLR,0.09,VWS V14.01,2013-04-05 23:47:00,
2013-04-05 19:52:00,49.8,25.2,30.03,NW,315,0.0,0.0,38,0.00,,CLR,0.09,VWS V14.01,2013-04-05 23:52:00,
2013-04-05 19:57:00,48.6,24.7,30.03,West,270,0.0,0.0,39,0.00,,CLR,0.09,VWS V14.01,2013-04-05 23:57:00,
2013-04-05 20:02:00,47.5,25.0,30.00,West,270,0.0,0.0,41,0.00,,CLR,0.09,VWS V14.01,2013-04-06 00:02:00,
2013-04-05 20:07:00,46.4,25.7,30.00,West,270,0.0,0.0,44,0.00,,CLR,0.09,VWS V14.01,2013-04-06 00:07:00,
2013-04-05 20:12:00,45.3,25.2,30.00,West,270,0.0,0.0,45,0.00,,CLR,0.09,VWS V14.01,2013-04-06 00:12:00,
2013-04-05 20:17:00,44.6,25.6,30.00,West,270,0.0,0.9,47,0.00,,CLR,0.09,VWS V14.01,2013-04-06 00:17:00,
2013-04-05 20:22:00,43.5,25.1,30.00,West,270,0.0,0.0,48,0.00,,CLR,0.09,VWS V14.01,2013-04-06 00:22:00,
2013-04-05 20:27:00,42.4,25.1,30.00,NW,315,0.0,1.6,50,0.00,,CLR,0.09,VWS V14.01,2013-04-06 00:27:00,
2013-04-05 20:32:00,41.9,25.1,30.03,NW,315,0.0,0.0,51,0.00,,CLR,0.09,VWS V14.01,2013-04-06 00:32:00,
2013-04-05 20:37:00,41.4,25.1,30.03,WNW,292,0.0,0.0,52,0.00,,CLR,0.09,VWS V14.01,2013-04-06 00:37:00,
2013-04-05 20:42:00,40.8,25.0,30.03,WNW,292,0.0,0.0,53,0.00,,CLR,0.09,VWS V14.01,2013-04-06 00:42:00,
2013-04-05 20:47:00,40.5,24.7,30.03,WNW,292,0.0,0.0,53,0.00,,CLR,0.09,VWS V14.01,2013-04-06 00:47:00,
2013-04-05 20:52:00,39.4,24.6,30.03,WNW,292,0.0,0.0,55,0.00,,CLR,0.09,VWS V14.01,2013-04-06 00:52:00,
2013-04-05 20:57:00,38.8,24.1,30.03,NNW,338,0.0,0.0,55,0.00,,CLR,0.09,VWS V14.01,2013-04-06 00:57:00,
2013-04-05 21:02:00,38.7,24.8,30.03,NW,315,0.0,0.0,57,0.00,,CLR,0.09,VWS V14.01,2013-04-06 01:02:00,
2013-04-05 21:07:00,37.9,24.1,30.03,NW,315,0.0,0.0,57,0.00,,CLR,0.09,VWS V14.01,2013-04-06 01:07:00,
2013-04-05 21:16:00,37.9,25.7,30.06,South,180,0.0,0.0,61,0.00,,CLR,0.09,VWS V14.01,2013-04-06 01:16:00,
2013-04-05 21:21:00,37.0,24.9,30.06,South,180,0.0,0.0,61,0.00,,CLR,0.09,VWS V14.01,2013-04-06 01:21:00,
2013-04-05 21:26:00,36.5,25.5,30.06,South,180,0.0,0.0,64,0.00,,CLR,0.09,VWS V14.01,2013-04-06 01:26:00,
2013-04-05 21:32:00,36.1,25.1,30.06,South,180,0.0,0.0,64,0.00,,CLR,0.09,VWS V14.01,2013-04-06 01:32:00,
2013-04-05 21:37:00,36.0,25.0,30.06,South,180,0.0,0.0,64,0.00,,CLR,0.09,VWS V14.01,2013-04-06 01:37:00,
2013-04-05 21:42:00,35.8,24.8,30.06,South,180,0.0,0.0,64,0.00,,CLR,0.09,VWS V14.01,2013-04-06 01:42:00,
2013-04-05 21:47:00,35.2,25.0,30.09,WSW,248,0.0,0.0,66,0.00,,CLR,0.09,VWS V14.01,2013-04-06 01:47:00,
2013-04-05 21:52:00,35.4,25.2,30.09,WSW,248,0.0,0.0,66,0.00,,CLR,0.09,VWS V14.01,2013-04-06 01:52:00,
2013-04-05 21:57:00,35.1,25.2,30.09,WSW,248,0.0,0.0,67,0.00,,CLR,0.09,VWS V14.01,2013-04-06 01:57:00,
2013-04-05 22:02:00,34.3,24.9,30.09,WSW,248,0.0,0.0,68,0.00,,CLR,0.09,VWS V14.01,2013-04-06 02:02:00,
2013-04-05 22:07:00,34.0,24.9,30.09,WSW,248,0.0,0.0,69,0.00,,CLR,0.09,VWS V14.01,2013-04-06 02:07:00,
2013-04-05 22:12:00,33.8,24.7,30.09,WSW,248,0.0,0.0,69,0.00,,CLR,0.09,VWS V14.01,2013-04-06 02:12:00,
2013-04-05 22:17:00,33.8,24.7,30.09,WSW,248,0.0,0.9,69,0.00,,CLR,0.09,VWS V14.01,2013-04-06 02:17:00,
2013-04-05 22:22:00,33.4,25.1,30.09,WSW,248,0.0,0.0,71,0.00,,CLR,0.09,VWS V14.01,2013-04-06 02:22:00,
2013-04-05 22:27:00,33.3,24.9,30.09,West,270,0.0,0.0,71,0.00,,CLR,0.09,VWS V14.01,2013-04-06 02:27:00,
2013-04-05 22:32:00,33.4,25.4,30.09,NW,315,1.6,1.6,72,0.00,,CLR,0.09,VWS V14.01,2013-04-06 02:32:00,
2013-04-05 22:37:00,33.3,25.9,30.09,NW,315,0.0,1.3,74,0.00,,CLR,0.09,VWS V14.01,2013-04-06 02:37:00,
2013-04-05 22:42:00,33.1,25.4,30.09,NW,315,0.0,0.0,73,0.00,,CLR,0.09,VWS V14.01,2013-04-06 02:42:00,
2013-04-05 22:47:00,33.1,25.0,30.09,West,270,0.0,1.1,72,0.00,,CLR,0.09,VWS V14.01,2013-04-06 02:47:00,
2013-04-05 22:52:00,32.9,25.2,30.09,SSE,158,0.0,1.6,73,0.00,,CLR,0.09,VWS V14.01,2013-04-06 02:52:00,
2013-04-05 22:57:00,32.9,25.5,30.09,SSW,202,0.0,0.0,74,0.00,,CLR,0.09,VWS V14.01,2013-04-06 02:57:00,
2013-04-05 23:02:00,32.4,25.0,30.09,SSW,202,0.0,0.0,74,0.00,,CLR,0.09,VWS V14.01,2013-04-06 03:02:00,
2013-04-05 23:03:00,30.7,25.0,30.12,SSW,202,0.0,0.0,79,0.00,,CLR,0.09,VWS V14.01,2013-04-06 03:03:00,
2013-04-05 23:04:00,30.6,24.8,30.12,SSW,202,0.0,0.0,79,0.00,,CLR,0.09,VWS V14.01,2013-04-06 03:04:00,
2013-04-05 23:05:00,30.6,24.8,30.12,SSW,202,0.0,0.0,79,0.00,,CLR,0.09,VWS V14.01,2013-04-06 03:05:00,
2013-04-05 23:06:00,30.6,24.8,30.12,SSW,202,0.0,0.0,79,0.00,,CLR,0.09,VWS V14.01,2013-04-06 03:06:00,
2013-04-05 23:07:00,32.4,25.3,30.09,SE,135,0.0,0.0,75,0.00,,CLR,0.09,VWS V14.01,2013-04-06 03:07:00,
2013-04-05 23:08:00,30.4,24.7,30.12,SSW,202,0.0,0.0,79,0.00,,CLR,0.09,VWS V14.01,2013-04-06 03:08:00,
2013-04-05 23:09:00,30.2,24.5,30.12,SSW,202,0.0,0.0,79,0.00,,CLR,0.09,VWS V14.01,2013-04-06 03:09:00,
2013-04-05 23:10:00,30.2,24.5,30.12,SSW,202,0.0,0.0,79,0.00,,CLR,0.09,VWS V14.01,2013-04-06 03:10:00,
2013-04-05 23:12:00,32.2,25.5,30.09,South,180,0.0,0.0,76,0.00,,CLR,0.09,VWS V14.01,2013-04-06 03:12:00,
2013-04-05 23:17:00,32.0,25.3,30.12,South,180,0.0,0.0,76,0.00,,CLR,0.09,VWS V14.01,2013-04-06 03:17:00,
2013-04-05 23:22:00,31.6,25.0,30.12,South,180,0.0,0.0,76,0.00,,CLR,0.09,VWS V14.01,2013-04-06 03:22:00,
2013-04-05 23:27:00,31.6,25.0,30.12,South,180,0.0,0.0,76,0.00,,CLR,0.09,VWS V14.01,2013-04-06 03:27:00,
2013-04-05 23:32:00,31.6,25.0,30.12,South,180,0.0,0.0,76,0.00,,CLR,0.09,VWS V14.01,2013-04-06 03:32:00,
2013-04-05 23:37:00,31.5,24.8,30.12,South,180,0.0,0.0,76,0.00,,CLR,0.09,VWS V14.01,2013-04-06 03:37:00,
2013-04-05 23:42:00,30.7,24.4,30.12,South,180,0.0,0.0,77,0.00,,CLR,0.09,VWS V14.01,2013-04-06 03:42:00,
2013-04-05 23:47:00,31.1,24.8,30.12,SE,135,2.0,2.5,77,0.00,,CLR,0.09,VWS V14.01,2013-04-06 03:47:00,
2013-04-05 23:52:00,31.5,25.7,30.12,SSE,158,2.2,2.5,79,0.00,,CLR,0.09,VWS V14.01,2013-04-06 03:52:00,
2013-04-05 23:57:00,31.1,25.4,30.12,SSW,202,0.0,0.0,79,0.00,,CLR,0.09,VWS V14.01,2013-04-06 03:57:00,